[Date Prev][Date Next][Thread Prev][Thread Next] - [Date Index][Thread Index][Author Index]

2 Line ISS Keps 8-21



 ISS
1 25544U 98067A   04234.33614205  .00025097  00000-0  20553-3 0  4959
2 25544  51.6343 353.1390 0007919 117.2007 352.6205 15.70320494328553
----
Via the sarex mailing list at AMSAT.ORG courtesy of AMSAT-NA.
To unsubscribe, send "unsubscribe sarex" to Majordomo@amsat.org



AMSAT Top AMSAT Home